Regional Weather Roundup
Issued by NWS

Home | Current Version | Previous Version | Text Only | Print | Product List | Glossary Off
Versions: 1 2 3 4 5 6 7 8 9 10 11 12 13 14 15 16 17 18 19 20 21 22 23 24 25 26 27 28 29 30 31 32 33 34 35 36 37 38 39 40 41 42 43 44 45 46 47 48 49 50

000
ASUS45 KCYS 160110
RWRWY

WYOMING REGIONAL WEATHER ROUNDUP
NATIONAL WEATHER SERVICE CHEYENNE WY
700 PM MDT SUN OCT 15 2017

NOTE:  "FAIR" INDICATES FEW OR NO CLOUDS BELOW 12,000 FEET
WITH NO SIGNIFICANT WEATHER AND/OR OBSTRUCTIONS TO VISIBILITY.

WYZ001-160200-
YELLOWSTONE NATIONAL PARK

CITY           SKY/WX    TMP DP  RH WIND       PRES   REMARKS
LK YELLOWSTONE   N/A     31  26  82 NW3       30.49R
W YELLOWSTONE  NOT AVBL

$$
WYZ002>013-054>058-071-098>099-160200-
NORTHERN WYOMING

CITY           SKY/WX    TMP DP  RH WIND       PRES   REMARKS
JACKSON        FAIR      39  26  59 NW6       30.45F WCI  35
CODY           FAIR      50  25  37 SE10      30.30S
GREYBULL       FAIR      52  24  33 CALM      30.29S
WORLAND        FAIR      42  30  62 SE7       30.29S
SHERIDAN       FAIR      44  30  57 SW6       30.24F
BUFFALO        FAIR      43  24  47 W7        30.29S
GILLETTE       FAIR      36  28  73 S5        30.27S WCI  32
HULETT         FAIR      45  28  53 S7        30.29S
NEWCASTLE      FAIR      46  27  46 E5        30.30F

$$
WYZ014>020-022>026-101>103-160200-
CENTRAL WYOMING

CITY           SKY/WX    TMP DP  RH WIND       PRES   REMARKS
BIG PINEY      FAIR      50  18  28 CALM      30.45S
PINEDALE       FAIR      45  21  39 CALM      30.46R
DUBOIS         FAIR      43  25  49 NW9       30.41R
LANDER         FAIR      49  31  49 SW8       30.33S
RIVERTON       FAIR      49  29  46 CALM      30.34F
CASPER         FAIR      47  22  37 SW9       30.33F
DOUGLAS        FAIR      48  23  37 W8        30.33S

$$
WYZ021-027>030-104>119-160200-
SOUTHERN WYOMING

CITY           SKY/WX    TMP DP  RH WIND       PRES   REMARKS
EVANSTON       FAIR      51   7  16 W13       30.45F
KEMMERER       FAIR      46  12  25 CALM      30.47S
FORT BRIDGER   FAIR      48  12  23 S6        30.48S
ROCK SPRINGS   FAIR      47   8  20 W9        30.45S
DIXON          FAIR      42  19  39 NE5       30.48S
RAWLINS        FAIR      46  13  26 S3        30.44S
SARATOGA       FAIR      43  18  36 SW7       30.46S
LARAMIE        FAIR      48  18  30 VRB6      30.43R
CHEYENNE       FAIR      49  21  33 S6        30.42R
TORRINGTON     FAIR      53  21  28 SE3       30.32S
PINE BLUFFS    FAIR      46  23  39 CALM      30.39R

$$



USA.gov is the U.S. government's official web portal to all federal, state and local government web resources and services.